Location: Unspecified
(0.0000°N, 0.0000°E)
Time: 08:55:05
(UTC+00:00)

Transit 4B - Pass Details

Date: 15 August 2024
Orbit: 947 x 1097 km, 32.4° (Epoch: 07 September)

Event Time Altitude Azimuth Distance (km) Brightness Sun altitude
Rises 20:28:17 0° 326° (NNW) 3,617 12.1 -34.8°
Reaches altitude 10° 20:31:29 10° 341° (NNW) 2,660 11.1 -35.6°
Enters shadow 20:33:41 18° 358° (N) 2,143 10.4 -36.1°
